owner,sensor,date,latitude,longitude,vertical_datum,sea_water_temperature,qcFlag 
TABS,ioos:station:wmo:42044:1,2001-05-10T00:00:00Z,26.1914,-97.0507,-2.0,24.59,11111222 
TABS,ioos:station:wmo:42044:1,2001-05-10T13:30:00Z,26.1914,-97.0507,-2.0,24.59,11111222 
TABS,ioos:station:wmo:42044:1,2001-05-10T14:00:00Z,26.1914,-97.0507,-2.0,24.59,11111222 
TABS,ioos:station:wmo:42044:1,2001-05-10T14:30:00Z,26.1914,-97.0507,-2.0,24.62,11111222 
TABS,ioos:station:wmo:42044:1,2001-05-10T15:00:00Z,26.1914,-97.0507,-2.0,24.65,11111222 
TABS,ioos:station:wmo:42044:1,2001-05-10T15:30:00Z,26.1914,-97.0507,-2.0,24.68,11111222 
TABS,ioos:station:wmo:42044:1,2001-05-10T16:00:00Z,26.1914,-97.0507,-2.0,24.73,11111222 
TABS,ioos:station:wmo:42044:1,2001-05-10T16:30:00Z,26.1914,-97.0507,-2.0,24.8,11111222 
TABS,ioos:station:wmo:42044:1,2001-05-10T17:00:00Z,26.1914,-97.0507,-2.0,24.82,11111222 
TABS,ioos:station:wmo:42044:1,2001-05-10T17:30:00Z,26.1914,-97.0507,-2.0,24.84,11111222 
TABS,ioos:station:wmo:42044:1,2001-05-10T18:00:00Z,26.1914,-97.0507,-2.0,24.92,11111222 
TABS,ioos:station:wmo:42044:1,2001-05-10T18:30:00Z,26.1914,-97.0507,-2.0,24.95,11111222 
TABS,ioos:station:wmo:42044:1,2001-05-10T19:00:00Z,26.1914,-97.0507,-2.0,24.96,11111222 
TABS,ioos:station:wmo:42044:1,2001-05-10T19:30:00Z,26.1914,-97.0507,-2.0,25.01,11111222 
TABS,ioos:station:wmo:42044:1,2001-05-10T20:00:00Z,26.1914,-97.0507,-2.0,25.02,11111222 
TABS,ioos:station:wmo:42044:1,2001-05-10T20:30:00Z,26.1914,-97.0507,-2.0,25.04,11111222 
TABS,ioos:station:wmo:42044:1,2001-05-10T21:00:00Z,26.1914,-97.0507,-2.0,25.04,11111222 
TABS,ioos:station:wmo:42044:1,2001-05-10T21:30:00Z,26.1914,-97.0507,-2.0,25.01,11111222 
TABS,ioos:station:wmo:42044:1,2001-05-10T22:00:00Z,26.1914,-97.0507,-2.0,25.03,11111222 
TABS,ioos:station:wmo:42044:1,2001-05-10T22:30:00Z,26.1914,-97.0507,-2.0,25.03,11111222 
TABS,ioos:station:wmo:42044:1,2001-05-10T23:00:00Z,26.1914,-97.0507,-2.0,25.03,11111222 
TABS,ioos:station:wmo:42044:1,2001-05-10T23:30:00Z,26.1914,-97.0507,-2.0,25.03,11111222 
TABS,ioos:station:wmo:42044:1,2001-05-11T00:00:00Z,26.1914,-97.0507,-2.0,25.02,11111222 
TABS,ioos:station:wmo:42044:1,2001-05-11T00:30:00Z,26.1914,-97.0507,-2.0,25.01,11111222 
TABS,ioos:station:wmo:42044:1,2001-05-11T01:00:00Z,26.1914,-97.0507,-2.0,24.99,11111222 
TABS,ioos:station:wmo:42044:1,2001-05-11T01:30:00Z,26.1914,-97.0507,-2.0,24.97,11111222 
TABS,ioos:station:wmo:42044:1,2001-05-11T02:00:00Z,26.1914,-97.0507,-2.0,24.94,11111222 
TABS,ioos:station:wmo:42044:1,2001-05-11T02:30:00Z,26.1914,-97.0507,-2.0,24.89,11111222 
TABS,ioos:station:wmo:42044:1,2001-05-11T03:00:00Z,26.1914,-97.0507,-2.0,24.89,11111222 
TABS,ioos:station:wmo:42044:1,2001-05-11T03:30:00Z,26.1914,-97.0507,-2.0,24.88,11111222 
TABS,ioos:station:wmo:42044:1,2001-05-11T04:00:00Z,26.1914,-97.0507,-2.0,24.86,11111222 
TABS,ioos:station:wmo:42044:1,2001-05-11T04:30:00Z,26.1914,-97.0507,-2.0,24.83,11111222 
TABS,ioos:station:wmo:42044:1,2001-05-11T05:00:00Z,26.1914,-97.0507,-2.0,24.82,11111222 
TABS,ioos:station:wmo:42044:1,2001-05-11T05:30:00Z,26.1914,-97.0507,-2.0,24.8,11111222 
TABS,ioos:station:wmo:42044:1,2001-05-11T06:00:00Z,26.1914,-97.0507,-2.0,24.78,11111222 
TABS,ioos:station:wmo:42044:1,2001-05-11T06:30:00Z,26.1914,-97.0507,-2.0,24.76,11111222 
TABS,ioos:station:wmo:42044:1,2001-05-11T07:00:00Z,26.1914,-97.0507,-2.0,24.77,11111222 
TABS,ioos:station:wmo:42044:1,2001-05-11T07:30:00Z,26.1914,-97.0507,-2.0,24.77,11111222 
TABS,ioos:station:wmo:42044:1,2001-05-11T08:00:00Z,26.1914,-97.0507,-2.0,24.76,11111222 
TABS,ioos:station:wmo:42044:1,2001-05-11T08:30:00Z,26.1914,-97.0507,-2.0,24.75,11111222 
TABS,ioos:station:wmo:42044:1,2001-05-11T09:00:00Z,26.1914,-97.0507,-2.0,24.77,11111222 
TABS,ioos:station:wmo:42044:1,2001-05-11T09:30:00Z,26.1914,-97.0507,-2.0,24.77,11111222 
TABS,ioos:station:wmo:42044:1,2001-05-11T10:00:00Z,26.1914,-97.0507,-2.0,24.76,11111222 
TABS,ioos:station:wmo:42044:1,2001-05-11T10:30:00Z,26.1914,-97.0507,-2.0,24.75,11111222 
TABS,ioos:station:wmo:42044:1,2001-05-11T11:00:00Z,26.1914,-97.0507,-2.0,24.73,11111222 
TABS,ioos:station:wmo:42044:1,2001-05-11T11:30:00Z,26.1914,-97.0507,-2.0,24.73,11111222 
TABS,ioos:station:wmo:42044:1,2001-05-11T12:00:00Z,26.1914,-97.0507,-2.0,24.72,11111222 
TABS,ioos:station:wmo:42044:1,2001-05-11T12:30:00Z,26.1914,-97.0507,-2.0,24.69,11111222 
TABS,ioos:station:wmo:42044:1,2001-05-11T13:00:00Z,26.1914,-97.0507,-2.0,24.71,11111222 
TABS,ioos:station:wmo:42044:1,2001-05-11T13:30:00Z,26.1914,-97.0507,-2.0,24.71,11111222 
TABS,ioos:station:wmo:42044:1,2001-05-11T14:00:00Z,26.1914,-97.0507,-2.0,24.72,11111222 
TABS,ioos:station:wmo:42044:1,2001-05-11T14:30:00Z,26.1914,-97.0507,-2.0,24.75,11111222 
TABS,ioos:station:wmo:42044:1,2001-05-11T15:00:00Z,26.1914,-97.0507,-2.0,24.77,11111222 
TABS,ioos:station:wmo:42044:1,2001-05-11T15:30:00Z,26.1914,-97.0507,-2.0,24.78,11111222 
TABS,ioos:station:wmo:42044:1,2001-05-11T16:00:00Z,26.1914,-97.0507,-2.0,24.8,11111222 
TABS,ioos:station:wmo:42044:1,2001-05-11T16:30:00Z,26.1914,-97.0507,-2.0,24.86,11111222 
TABS,ioos:station:wmo:42044:1,2001-05-11T17:00:00Z,26.1914,-97.0507,-2.0,24.85,11111222 
TABS,ioos:station:wmo:42044:1,2001-05-11T17:30:00Z,26.1914,-97.0507,-2.0,25.0,11111222 
TABS,ioos:station:wmo:42044:1,2001-05-11T18:00:00Z,26.1914,-97.0507,-2.0,25.23,11111222 
TABS,ioos:station:wmo:42044:1,2001-05-11T18:30:00Z,26.1914,-97.0507,-2.0,25.27,11111222 
TABS,ioos:station:wmo:42044:1,2001-05-11T19:00:00Z,26.1914,-97.0507,-2.0,25.29,11111222 
TABS,ioos:station:wmo:42044:1,2001-05-11T19:30:00Z,26.1914,-97.0507,-2.0,25.24,11111222 
TABS,ioos:station:wmo:42044:1,2001-05-11T20:00:00Z,26.1914,-97.0507,-2.0,25.2,11111222 
TABS,ioos:station:wmo:42044:1,2001-05-11T20:30:00Z,26.1914,-97.0507,-2.0,25.15,11111222 
TABS,ioos:station:wmo:42044:1,2001-05-11T21:00:00Z,26.1914,-97.0507,-2.0,25.09,11111222 
TABS,ioos:station:wmo:42044:1,2001-05-11T21:30:00Z,26.1914,-97.0507,-2.0,25.17,11111222 
TABS,ioos:station:wmo:42044:1,2001-05-11T22:00:00Z,26.1914,-97.0507,-2.0,25.14,11111222 
TABS,ioos:station:wmo:42044:1,2001-05-11T22:30:00Z,26.1914,-97.0507,-2.0,25.07,11111222 
TABS,ioos:station:wmo:42044:1,2001-05-11T23:00:00Z,26.1914,-97.0507,-2.0,25.07,11111222 
TABS,ioos:station:wmo:42044:1,2001-05-11T23:30:00Z,26.1914,-97.0507,-2.0,25.08,11111222 
TABS,ioos:station:wmo:42044:1,2001-05-12T00:00:00Z,26.1914,-97.0507,-2.0,25.05,11111222 
TABS,ioos:station:wmo:42044:1,2001-05-12T00:30:00Z,26.1914,-97.0507,-2.0,25.04,11111222 
TABS,ioos:station:wmo:42044:1,2001-05-12T01:00:00Z,26.1914,-97.0507,-2.0,25.0,11111222 
TABS,ioos:station:wmo:42044:1,2001-05-12T01:30:00Z,26.1914,-97.0507,-2.0,24.98,11111222 
TABS,ioos:station:wmo:42044:1,2001-05-12T02:00:00Z,26.1914,-97.0507,-2.0,24.95,11111222 
TABS,ioos:station:wmo:42044:1,2001-05-12T02:30:00Z,26.1914,-97.0507,-2.0,24.95,11111222 
TABS,ioos:station:wmo:42044:1,2001-05-12T03:00:00Z,26.1914,-97.0507,-2.0,24.94,11111222 
TABS,ioos:station:wmo:42044:1,2001-05-12T03:30:00Z,26.1914,-97.0507,-2.0,24.93,11111222 
TABS,ioos:station:wmo:42044:1,2001-05-12T04:00:00Z,26.1914,-97.0507,-2.0,24.92,11111222 
TABS,ioos:station:wmo:42044:1,2001-05-12T04:30:00Z,26.1914,-97.0507,-2.0,24.92,11111222 
TABS,ioos:station:wmo:42044:1,2001-05-12T05:00:00Z,26.1914,-97.0507,-2.0,24.9,11111222 
TABS,ioos:station:wmo:42044:1,2001-05-12T05:30:00Z,26.1914,-97.0507,-2.0,24.88,11111222 
TABS,ioos:station:wmo:42044:1,2001-05-12T06:00:00Z,26.1914,-97.0507,-2.0,24.86,11111222 
TABS,ioos:station:wmo:42044:1,2001-05-12T06:30:00Z,26.1914,-97.0507,-2.0,24.85,11111222 
TABS,ioos:station:wmo:42044:1,2001-05-12T07:00:00Z,26.1914,-97.0507,-2.0,24.83,11111222 
TABS,ioos:station:wmo:42044:1,2001-05-12T07:30:00Z,26.1914,-97.0507,-2.0,24.82,11111222 
TABS,ioos:station:wmo:42044:1,2001-05-12T08:00:00Z,26.1914,-97.0507,-2.0,24.82,11111222 
TABS,ioos:station:wmo:42044:1,2001-05-12T08:30:00Z,26.1914,-97.0507,-2.0,24.81,11111222 
TABS,ioos:station:wmo:42044:1,2001-05-12T09:00:00Z,26.1914,-97.0507,-2.0,24.81,11111222 
TABS,ioos:station:wmo:42044:1,2001-05-12T09:30:00Z,26.1914,-97.0507,-2.0,24.8,11111222 
TABS,ioos:station:wmo:42044:1,2001-05-12T10:00:00Z,26.1914,-97.0507,-2.0,24.83,11111222 
TABS,ioos:station:wmo:42044:1,2001-05-12T10:30:00Z,26.1914,-97.0507,-2.0,24.83,11111222 
TABS,ioos:station:wmo:42044:1,2001-05-12T11:00:00Z,26.1914,-97.0507,-2.0,24.83,11111222 
TABS,ioos:station:wmo:42044:1,2001-05-12T11:30:00Z,26.1914,-97.0507,-2.0,24.84,11111222 
TABS,ioos:station:wmo:42044:1,2001-05-12T12:00:00Z,26.1914,-97.0507,-2.0,24.83,11111222 
TABS,ioos:station:wmo:42044:1,2001-05-12T12:30:00Z,26.1914,-97.0507,-2.0,24.82,11111222 
TABS,ioos:station:wmo:42044:1,2001-05-12T13:00:00Z,26.1914,-97.0507,-2.0,24.85,11111222 
TABS,ioos:station:wmo:42044:1,2001-05-12T13:30:00Z,26.1914,-97.0507,-2.0,24.86,11111222 
TABS,ioos:station:wmo:42044:1,2001-05-12T14:00:00Z,26.1914,-97.0507,-2.0,24.88,11111222 
TABS,ioos:station:wmo:42044:1,2001-05-12T14:30:00Z,26.1914,-97.0507,-2.0,24.89,11111222 
TABS,ioos:station:wmo:42044:1,2001-05-12T15:00:00Z,26.1914,-97.0507,-2.0,24.92,11111222 
TABS,ioos:station:wmo:42044:1,2001-05-12T15:30:00Z,26.1914,-97.0507,-2.0,25.04,11111222 
TABS,ioos:station:wmo:42044:1,2001-05-12T16:00:00Z,26.1914,-97.0507,-2.0,25.06,11111222 
TABS,ioos:station:wmo:42044:1,2001-05-12T16:30:00Z,26.1914,-97.0507,-2.0,25.07,11111222 
TABS,ioos:station:wmo:42044:1,2001-05-12T17:00:00Z,26.1914,-97.0507,-2.0,25.06,11111222 
TABS,ioos:station:wmo:42044:1,2001-05-12T17:30:00Z,26.1914,-97.0507,-2.0,25.0,11111222 
TABS,ioos:station:wmo:42044:1,2001-05-12T18:00:00Z,26.1914,-97.0507,-2.0,25.01,11111222 
TABS,ioos:station:wmo:42044:1,2001-05-12T18:30:00Z,26.1914,-97.0507,-2.0,25.32,11111222 
TABS,ioos:station:wmo:42044:1,2001-05-12T19:00:00Z,26.1914,-97.0507,-2.0,25.19,11111222 
TABS,ioos:station:wmo:42044:1,2001-05-12T19:30:00Z,26.1914,-97.0507,-2.0,25.57,11111222 
TABS,ioos:station:wmo:42044:1,2001-05-12T20:00:00Z,26.1914,-97.0507,-2.0,25.69,11111222 
TABS,ioos:station:wmo:42044:1,2001-05-12T20:30:00Z,26.1914,-97.0507,-2.0,25.66,11111222 
TABS,ioos:station:wmo:42044:1,2001-05-12T21:00:00Z,26.1914,-97.0507,-2.0,25.83,11111222 
TABS,ioos:station:wmo:42044:1,2001-05-12T21:30:00Z,26.1914,-97.0507,-2.0,25.87,11111222 
TABS,ioos:station:wmo:42044:1,2001-05-12T22:00:00Z,26.1914,-97.0507,-2.0,25.83,11111222 
TABS,ioos:station:wmo:42044:1,2001-05-12T22:30:00Z,26.1914,-97.0507,-2.0,25.83,11111222 
TABS,ioos:station:wmo:42044:1,2001-05-12T23:00:00Z,26.1914,-97.0507,-2.0,25.82,11111222 
TABS,ioos:station:wmo:42044:1,2001-05-12T23:30:00Z,26.1914,-97.0507,-2.0,25.75,11111222 
TABS,ioos:station:wmo:42044:1,2001-05-13T00:00:00Z,26.1914,-97.0507,-2.0,25.66,11111222 
TABS,ioos:station:wmo:42044:1,2001-05-13T00:30:00Z,26.1914,-97.0507,-2.0,25.61,11111222 
TABS,ioos:station:wmo:42044:1,2001-05-13T01:00:00Z,26.1914,-97.0507,-2.0,25.59,11111222 
TABS,ioos:station:wmo:42044:1,2001-05-13T01:30:00Z,26.1914,-97.0507,-2.0,25.5,11111222 
TABS,ioos:station:wmo:42044:1,2001-05-13T02:00:00Z,26.1914,-97.0507,-2.0,25.46,11111222 
TABS,ioos:station:wmo:42044:1,2001-05-13T02:30:00Z,26.1914,-97.0507,-2.0,25.39,11111222 
TABS,ioos:station:wmo:42044:1,2001-05-13T03:00:00Z,26.1914,-97.0507,-2.0,25.37,11111222 
TABS,ioos:station:wmo:42044:1,2001-05-13T03:30:00Z,26.1914,-97.0507,-2.0,25.32,11111222 
TABS,ioos:station:wmo:42044:1,2001-05-13T04:00:00Z,26.1914,-97.0507,-2.0,25.31,11111222 
TABS,ioos:station:wmo:42044:1,2001-05-13T04:30:00Z,26.1914,-97.0507,-2.0,25.28,11111222 
TABS,ioos:station:wmo:42044:1,2001-05-13T05:00:00Z,26.1914,-97.0507,-2.0,25.22,11111222 
TABS,ioos:station:wmo:42044:1,2001-05-13T05:30:00Z,26.1914,-97.0507,-2.0,25.21,11111222 
TABS,ioos:station:wmo:42044:1,2001-05-13T06:00:00Z,26.1914,-97.0507,-2.0,25.18,11111222 
TABS,ioos:station:wmo:42044:1,2001-05-13T06:30:00Z,26.1914,-97.0507,-2.0,25.18,11111222 
TABS,ioos:station:wmo:42044:1,2001-05-13T07:00:00Z,26.1914,-97.0507,-2.0,25.16,11111222 
TABS,ioos:station:wmo:42044:1,2001-05-13T07:30:00Z,26.1914,-97.0507,-2.0,25.14,11111222 
TABS,ioos:station:wmo:42044:1,2001-05-13T08:00:00Z,26.1914,-97.0507,-2.0,25.14,11111222 
TABS,ioos:station:wmo:42044:1,2001-05-13T08:30:00Z,26.1914,-97.0507,-2.0,25.14,11111222 
TABS,ioos:station:wmo:42044:1,2001-05-13T09:00:00Z,26.1914,-97.0507,-2.0,25.13,11111222 
TABS,ioos:station:wmo:42044:1,2001-05-13T09:30:00Z,26.1914,-97.0507,-2.0,25.13,11111222 
TABS,ioos:station:wmo:42044:1,2001-05-13T10:00:00Z,26.1914,-97.0507,-2.0,25.12,11111222 
TABS,ioos:station:wmo:42044:1,2001-05-13T10:30:00Z,26.1914,-97.0507,-2.0,25.12,11111222 
TABS,ioos:station:wmo:42044:1,2001-05-13T11:00:00Z,26.1914,-97.0507,-2.0,25.11,11111222 
TABS,ioos:station:wmo:42044:1,2001-05-13T11:30:00Z,26.1914,-97.0507,-2.0,25.08,11111222 
TABS,ioos:station:wmo:42044:1,2001-05-13T12:00:00Z,26.1914,-97.0507,-2.0,25.07,11111222 
TABS,ioos:station:wmo:42044:1,2001-05-13T12:30:00Z,26.1914,-97.0507,-2.0,25.06,11111222 
TABS,ioos:station:wmo:42044:1,2001-05-13T13:00:00Z,26.1914,-97.0507,-2.0,25.05,11111222 
TABS,ioos:station:wmo:42044:1,2001-05-13T13:30:00Z,26.1914,-97.0507,-2.0,25.05,11111222 
TABS,ioos:station:wmo:42044:1,2001-05-13T14:00:00Z,26.1914,-97.0507,-2.0,25.06,11111222 
TABS,ioos:station:wmo:42044:1,2001-05-13T14:30:00Z,26.1914,-97.0507,-2.0,25.11,11111222 
TABS,ioos:station:wmo:42044:1,2001-05-13T15:00:00Z,26.1914,-97.0507,-2.0,25.15,11111222 
TABS,ioos:station:wmo:42044:1,2001-05-13T15:30:00Z,26.1914,-97.0507,-2.0,25.2,11111222 
TABS,ioos:station:wmo:42044:1,2001-05-13T16:00:00Z,26.1914,-97.0507,-2.0,25.2,11111222 
TABS,ioos:station:wmo:42044:1,2001-05-13T16:30:00Z,26.1914,-97.0507,-2.0,25.2,11111222 
TABS,ioos:station:wmo:42044:1,2001-05-13T17:00:00Z,26.1914,-97.0507,-2.0,25.27,11111222 
TABS,ioos:station:wmo:42044:1,2001-05-13T17:30:00Z,26.1914,-97.0507,-2.0,25.32,11111222 
TABS,ioos:station:wmo:42044:1,2001-05-13T18:00:00Z,26.1914,-97.0507,-2.0,25.37,11111222 
TABS,ioos:station:wmo:42044:1,2001-05-13T18:30:00Z,26.1914,-97.0507,-2.0,25.47,11111222 
TABS,ioos:station:wmo:42044:1,2001-05-13T19:00:00Z,26.1914,-97.0507,-2.0,25.57,11111222 
TABS,ioos:station:wmo:42044:1,2001-05-13T19:30:00Z,26.1914,-97.0507,-2.0,25.64,11111222 
TABS,ioos:station:wmo:42044:1,2001-05-13T20:00:00Z,26.1914,-97.0507,-2.0,25.65,11111222 
TABS,ioos:station:wmo:42044:1,2001-05-13T20:30:00Z,26.1914,-97.0507,-2.0,25.72,11111222 
TABS,ioos:station:wmo:42044:1,2001-05-13T21:00:00Z,26.1914,-97.0507,-2.0,25.87,11111222 
TABS,ioos:station:wmo:42044:1,2001-05-13T21:30:00Z,26.1914,-97.0507,-2.0,25.86,11111222 
TABS,ioos:station:wmo:42044:1,2001-05-13T22:00:00Z,26.1914,-97.0507,-2.0,25.87,11111222 
TABS,ioos:station:wmo:42044:1,2001-05-13T22:30:00Z,26.1914,-97.0507,-2.0,25.89,11111222 
TABS,ioos:station:wmo:42044:1,2001-05-13T23:00:00Z,26.1914,-97.0507,-2.0,25.86,11111222 
TABS,ioos:station:wmo:42044:1,2001-05-13T23:30:00Z,26.1914,-97.0507,-2.0,25.84,11111222 
TABS,ioos:station:wmo:42044:1,2001-05-14T00:00:00Z,26.1914,-97.0507,-2.0,25.84,11111222 
TABS,ioos:station:wmo:42044:1,2001-05-14T00:30:00Z,26.1914,-97.0507,-2.0,25.78,11111222 
TABS,ioos:station:wmo:42044:1,2001-05-14T01:00:00Z,26.1914,-97.0507,-2.0,25.76,11111222 
TABS,ioos:station:wmo:42044:1,2001-05-14T01:30:00Z,26.1914,-97.0507,-2.0,25.78,11111222 
TABS,ioos:station:wmo:42044:1,2001-05-14T02:00:00Z,26.1914,-97.0507,-2.0,25.69,11111222 
TABS,ioos:station:wmo:42044:1,2001-05-14T02:30:00Z,26.1914,-97.0507,-2.0,25.68,11111222 
TABS,ioos:station:wmo:42044:1,2001-05-14T03:00:00Z,26.1914,-97.0507,-2.0,25.66,11111222 
TABS,ioos:station:wmo:42044:1,2001-05-14T03:30:00Z,26.1914,-97.0507,-2.0,25.64,11111222 
TABS,ioos:station:wmo:42044:1,2001-05-14T04:00:00Z,26.1914,-97.0507,-2.0,25.62,11111222 
TABS,ioos:station:wmo:42044:1,2001-05-14T04:30:00Z,26.1914,-97.0507,-2.0,25.61,11111222 
TABS,ioos:station:wmo:42044:1,2001-05-14T05:00:00Z,26.1914,-97.0507,-2.0,25.58,11111222 
TABS,ioos:station:wmo:42044:1,2001-05-14T05:30:00Z,26.1914,-97.0507,-2.0,25.56,11111222 
TABS,ioos:station:wmo:42044:1,2001-05-14T06:00:00Z,26.1914,-97.0507,-2.0,25.54,11111222 
TABS,ioos:station:wmo:42044:1,2001-05-14T06:30:00Z,26.1914,-97.0507,-2.0,25.53,11111222 
TABS,ioos:station:wmo:42044:1,2001-05-14T07:00:00Z,26.1914,-97.0507,-2.0,25.53,11111222 
TABS,ioos:station:wmo:42044:1,2001-05-14T07:30:00Z,26.1914,-97.0507,-2.0,25.5,11111222 
TABS,ioos:station:wmo:42044:1,2001-05-14T08:00:00Z,26.1914,-97.0507,-2.0,25.49,11111222 
TABS,ioos:station:wmo:42044:1,2001-05-14T08:30:00Z,26.1914,-97.0507,-2.0,25.47,11111222 
TABS,ioos:station:wmo:42044:1,2001-05-14T09:00:00Z,26.1914,-97.0507,-2.0,25.44,11111222 
TABS,ioos:station:wmo:42044:1,2001-05-14T09:30:00Z,26.1914,-97.0507,-2.0,25.44,11111222 
TABS,ioos:station:wmo:42044:1,2001-05-14T10:00:00Z,26.1914,-97.0507,-2.0,25.44,11111222 
TABS,ioos:station:wmo:42044:1,2001-05-14T10:30:00Z,26.1914,-97.0507,-2.0,25.43,11111222 
TABS,ioos:station:wmo:42044:1,2001-05-14T11:00:00Z,26.1914,-97.0507,-2.0,25.4,11111222 
TABS,ioos:station:wmo:42044:1,2001-05-14T11:30:00Z,26.1914,-97.0507,-2.0,25.39,11111222 
TABS,ioos:station:wmo:42044:1,2001-05-14T12:00:00Z,26.1914,-97.0507,-2.0,25.37,11111222 
TABS,ioos:station:wmo:42044:1,2001-05-14T12:30:00Z,26.1914,-97.0507,-2.0,25.35,11111222 
TABS,ioos:station:wmo:42044:1,2001-05-14T13:00:00Z,26.1914,-97.0507,-2.0,25.35,11111222 
TABS,ioos:station:wmo:42044:1,2001-05-14T13:30:00Z,26.1914,-97.0507,-2.0,25.34,11111222 
TABS,ioos:station:wmo:42044:1,2001-05-14T14:00:00Z,26.1914,-97.0507,-2.0,25.35,11111222 
TABS,ioos:station:wmo:42044:1,2001-05-14T14:30:00Z,26.1914,-97.0507,-2.0,25.36,11111222 
TABS,ioos:station:wmo:42044:1,2001-05-14T15:00:00Z,26.1914,-97.0507,-2.0,25.39,11111222 
TABS,ioos:station:wmo:42044:1,2001-05-14T15:30:00Z,26.1914,-97.0507,-2.0,25.42,11111222 
TABS,ioos:station:wmo:42044:1,2001-05-14T16:00:00Z,26.1914,-97.0507,-2.0,25.45,11111222 
TABS,ioos:station:wmo:42044:1,2001-05-14T16:30:00Z,26.1914,-97.0507,-2.0,25.48,11111222 
TABS,ioos:station:wmo:42044:1,2001-05-14T17:00:00Z,26.1914,-97.0507,-2.0,25.53,11111222 
TABS,ioos:station:wmo:42044:1,2001-05-14T17:30:00Z,26.1914,-97.0507,-2.0,25.55,11111222 
TABS,ioos:station:wmo:42044:1,2001-05-14T18:00:00Z,26.1914,-97.0507,-2.0,25.63,11111222 
TABS,ioos:station:wmo:42044:1,2001-05-14T18:30:00Z,26.1914,-97.0507,-2.0,25.63,11111222 
TABS,ioos:station:wmo:42044:1,2001-05-14T19:00:00Z,26.1914,-97.0507,-2.0,25.62,11111222 
TABS,ioos:station:wmo:42044:1,2001-05-14T19:30:00Z,26.1914,-97.0507,-2.0,25.69,11111222 
TABS,ioos:station:wmo:42044:1,2001-05-14T20:00:00Z,26.1914,-97.0507,-2.0,25.73,11111222 
TABS,ioos:station:wmo:42044:1,2001-05-14T20:30:00Z,26.1914,-97.0507,-2.0,25.82,11111222 
TABS,ioos:station:wmo:42044:1,2001-05-14T21:00:00Z,26.1914,-97.0507,-2.0,25.82,11111222 
TABS,ioos:station:wmo:42044:1,2001-05-14T21:30:00Z,26.1914,-97.0507,-2.0,25.85,11111222 
TABS,ioos:station:wmo:42044:1,2001-05-14T22:00:00Z,26.1914,-97.0507,-2.0,25.86,11111222 
TABS,ioos:station:wmo:42044:1,2001-05-14T22:30:00Z,26.1914,-97.0507,-2.0,25.9,11111222 
TABS,ioos:station:wmo:42044:1,2001-05-14T23:00:00Z,26.1914,-97.0507,-2.0,25.88,11111222 
TABS,ioos:station:wmo:42044:1,2001-05-14T23:30:00Z,26.1914,-97.0507,-2.0,25.82,11111222 
TABS,ioos:station:wmo:42044:1,2001-05-15T00:00:00Z,26.1914,-97.0507,-2.0,25.79,11111222 
TABS,ioos:station:wmo:42044:1,2001-05-15T00:30:00Z,26.1914,-97.0507,-2.0,25.79,11111222 
TABS,ioos:station:wmo:42044:1,2001-05-15T01:00:00Z,26.1914,-97.0507,-2.0,25.85,11111222 
TABS,ioos:station:wmo:42044:1,2001-05-15T01:30:00Z,26.1914,-97.0507,-2.0,25.8,11111222 
TABS,ioos:station:wmo:42044:1,2001-05-15T02:00:00Z,26.1914,-97.0507,-2.0,25.78,11111222 
TABS,ioos:station:wmo:42044:1,2001-05-15T02:30:00Z,26.1914,-97.0507,-2.0,25.72,11111222 
TABS,ioos:station:wmo:42044:1,2001-05-15T03:00:00Z,26.1914,-97.0507,-2.0,25.71,11111222 
TABS,ioos:station:wmo:42044:1,2001-05-15T03:30:00Z,26.1914,-97.0507,-2.0,25.67,11111222 
TABS,ioos:station:wmo:42044:1,2001-05-15T04:00:00Z,26.1914,-97.0507,-2.0,25.64,11111222 
TABS,ioos:station:wmo:42044:1,2001-05-15T04:30:00Z,26.1914,-97.0507,-2.0,25.65,11111222 
TABS,ioos:station:wmo:42044:1,2001-05-15T05:00:00Z,26.1914,-97.0507,-2.0,25.63,11111222 
TABS,ioos:station:wmo:42044:1,2001-05-15T05:30:00Z,26.1914,-97.0507,-2.0,25.6,11111222 
TABS,ioos:station:wmo:42044:1,2001-05-15T06:00:00Z,26.1914,-97.0507,-2.0,25.6,11111222 
TABS,ioos:station:wmo:42044:1,2001-05-15T06:30:00Z,26.1914,-97.0507,-2.0,25.62,11111222 
TABS,ioos:station:wmo:42044:1,2001-05-15T07:00:00Z,26.1914,-97.0507,-2.0,25.6,11111222 
TABS,ioos:station:wmo:42044:1,2001-05-15T07:30:00Z,26.1914,-97.0507,-2.0,25.54,11111222 
TABS,ioos:station:wmo:42044:1,2001-05-15T08:00:00Z,26.1914,-97.0507,-2.0,25.53,11111222 
TABS,ioos:station:wmo:42044:1,2001-05-15T08:30:00Z,26.1914,-97.0507,-2.0,25.51,11111222 
TABS,ioos:station:wmo:42044:1,2001-05-15T09:00:00Z,26.1914,-97.0507,-2.0,25.49,11111222 
TABS,ioos:station:wmo:42044:1,2001-05-15T09:30:00Z,26.1914,-97.0507,-2.0,25.51,11111222 
TABS,ioos:station:wmo:42044:1,2001-05-15T10:00:00Z,26.1914,-97.0507,-2.0,25.5,11111222 
TABS,ioos:station:wmo:42044:1,2001-05-15T10:30:00Z,26.1914,-97.0507,-2.0,25.49,11111222 
TABS,ioos:station:wmo:42044:1,2001-05-15T11:00:00Z,26.1914,-97.0507,-2.0,25.49,11111222 
TABS,ioos:station:wmo:42044:1,2001-05-15T11:30:00Z,26.1914,-97.0507,-2.0,25.51,11111222 
TABS,ioos:station:wmo:42044:1,2001-05-15T12:00:00Z,26.1914,-97.0507,-2.0,25.52,11111222 
TABS,ioos:station:wmo:42044:1,2001-05-15T12:30:00Z,26.1914,-97.0507,-2.0,25.51,11111222 
TABS,ioos:station:wmo:42044:1,2001-05-15T13:00:00Z,26.1914,-97.0507,-2.0,25.51,11111222 
TABS,ioos:station:wmo:42044:1,2001-05-15T13:30:00Z,26.1914,-97.0507,-2.0,25.51,11111222 
TABS,ioos:station:wmo:42044:1,2001-05-15T14:00:00Z,26.1914,-97.0507,-2.0,25.52,11111222 
TABS,ioos:station:wmo:42044:1,2001-05-15T14:30:00Z,26.1914,-97.0507,-2.0,25.56,11111222 
TABS,ioos:station:wmo:42044:1,2001-05-15T15:00:00Z,26.1914,-97.0507,-2.0,25.58,11111222 
TABS,ioos:station:wmo:42044:1,2001-05-15T15:30:00Z,26.1914,-97.0507,-2.0,25.6,11111222 
TABS,ioos:station:wmo:42044:1,2001-05-15T16:00:00Z,26.1914,-97.0507,-2.0,25.63,11111222 
TABS,ioos:station:wmo:42044:1,2001-05-15T16:30:00Z,26.1914,-97.0507,-2.0,25.67,11111222 
TABS,ioos:station:wmo:42044:1,2001-05-15T17:00:00Z,26.1914,-97.0507,-2.0,25.7,11111222 
TABS,ioos:station:wmo:42044:1,2001-05-15T17:30:00Z,26.1914,-97.0507,-2.0,25.73,11111222 
TABS,ioos:station:wmo:42044:1,2001-05-15T18:00:00Z,26.1914,-97.0507,-2.0,25.76,11111222 
TABS,ioos:station:wmo:42044:1,2001-05-15T18:30:00Z,26.1914,-97.0507,-2.0,25.8,11111222 
TABS,ioos:station:wmo:42044:1,2001-05-15T19:00:00Z,26.1914,-97.0507,-2.0,25.81,11111222 
TABS,ioos:station:wmo:42044:1,2001-05-15T19:30:00Z,26.1914,-97.0507,-2.0,25.85,11111222 
TABS,ioos:station:wmo:42044:1,2001-05-15T20:00:00Z,26.1914,-97.0507,-2.0,25.83,11111222 
TABS,ioos:station:wmo:42044:1,2001-05-15T20:30:00Z,26.1914,-97.0507,-2.0,25.83,11111222 
TABS,ioos:station:wmo:42044:1,2001-05-15T21:00:00Z,26.1914,-97.0507,-2.0,25.85,11111222 
TABS,ioos:station:wmo:42044:1,2001-05-15T21:30:00Z,26.1914,-97.0507,-2.0,25.86,11111222 
TABS,ioos:station:wmo:42044:1,2001-05-15T22:00:00Z,26.1914,-97.0507,-2.0,25.87,11111222 
TABS,ioos:station:wmo:42044:1,2001-05-15T22:30:00Z,26.1914,-97.0507,-2.0,25.9,11111222 
TABS,ioos:station:wmo:42044:1,2001-05-15T23:00:00Z,26.1914,-97.0507,-2.0,25.84,11111222 
TABS,ioos:station:wmo:42044:1,2001-05-15T23:30:00Z,26.1914,-97.0507,-2.0,25.83,11111222 
TABS,ioos:station:wmo:42044:1,2001-05-16T00:00:00Z,26.1914,-97.0507,-2.0,25.8,11111222 
TABS,ioos:station:wmo:42044:1,2001-05-16T00:30:00Z,26.1914,-97.0507,-2.0,25.77,11111222 
TABS,ioos:station:wmo:42044:1,2001-05-16T01:00:00Z,26.1914,-97.0507,-2.0,25.76,11111222 
TABS,ioos:station:wmo:42044:1,2001-05-16T01:30:00Z,26.1914,-97.0507,-2.0,25.74,11111222 
TABS,ioos:station:wmo:42044:1,2001-05-16T02:00:00Z,26.1914,-97.0507,-2.0,25.71,11111222 
TABS,ioos:station:wmo:42044:1,2001-05-16T02:30:00Z,26.1914,-97.0507,-2.0,25.67,11111222 
TABS,ioos:station:wmo:42044:1,2001-05-16T03:00:00Z,26.1914,-97.0507,-2.0,25.76,11111222 